Regional Weather Roundup
Issued by NWS

Home | Current Version | Previous Version | Graphics & Text | Print | Product List | Glossary On
Versions: 1 2 3 4 5 6 7 8 9 10 11 12 13 14 15 16 17 18 19 20 21 22 23 24 25 26 27 28 29 30 31 32 33 34 35 36 37 38 39 40 41 42 43 44 45 46 47 48 49 50
000
ASUS43 KMKX 240200
RWRWI

WISCONSIN REGIONAL WEATHER ROUNDUP
NATIONAL WEATHER SERVICE MILWAUKEE/SULLIVAN WI
900 PM CDT FRI JUN 23 2017

NOTE: "FAIR" INDICATES FEW OR NO CLOUDS BELOW 12,000 FEET WITH NO
SIGNIFICANT WEATHER AND/OR OBSTRUCTIONS TO VISIBILITY.

WIZ001-002-006>008-014>016-023>028-240300-
NORTHWEST WISCONSIN

CITY           SKY/WX    TMP DP  RH WIND       PRES   REMARKS
SUPERIOR ARPT  NOT AVBL
ASHLAND        PTCLDY    63  52  67 W13       29.77R
HAYWARD        CLOUDY    59  55  87 CALM      29.81S
SIREN          CLOUDY    60  54  78 CALM      29.85R
CUMBERLAND     MOCLDY    59  50  72 NW10G18   29.84S
RICE LAKE      CLOUDY    62  51  68 NW10G16   29.85R
CHETEK         CLOUDY    62  52  69 NW10G18   29.83R
LADYSMITH      MOCLDY    64  50  61 W10       29.82R
EAU CLAIRE     NOT AVBL
MENOMONIE      MOCLDY    65  51  60 W15G21    29.85R
NEW RICHMOND   CLOUDY    63  48  59 NW20G29   29.87R
OSCEOLA        LGT RAIN  62  54  74 NW3       29.89R
$$

WIZ003>005-009-010-017-018-240300-
NORTH CENTRAL WISCONSIN

CITY           SKY/WX    TMP DP  RH WIND       PRES   REMARKS
MANITOWISH WTR MOCLDY    60  52  76 CALM      29.77R
ARBOR VITAE    MOCLDY    62  49  63 NW3       29.76S
WOODRUFF       MOCLDY    62  49  63 NW3       29.76S
RHINELANDER    MOCLDY    56  51  84 W3        29.78R
EAGLE RIVER    CLOUDY    61  46  59 W5        29.76R
LAND O LAKES   PTCLDY    60  47  62 W5        29.78R
PHILLIPS       MOCLDY    62  51  66 W3        29.78R
TOMAHAWK       NOT AVBL
MEDFORD        CLOUDY    62  49  63 NW8       29.79S
MERRILL        CLEAR     62  51  69 W7        29.79R
$$

WIZ029-030-035-036-043>047-240300-
CENTRAL WISCONSIN

CITY           SKY/WX    TMP DP  RH WIND       PRES   REMARKS
WAUSAU         CLOUDY    62  52  69 W14       29.77R
MOSINEE        MOCLDY    63  54  72 NW8       29.79R
MARSHFIELD     CLEAR     61  51  70 W6        29.79R
STEVENS POINT  PTCLDY    64  50  60 W6        29.78R
WAUPACA        PTCLDY    68  53  59 W6        29.76R
WAUTOMA        PTCLDY    64  54  69 W7        29.78R
WISC RAPIDS    CLEAR     64  52  64 W6        29.80R
CAMP DOUGLAS   CLEAR     60  55  82 W7        29.81R
$$

WIZ011>013-019>022-031-037>040-048>050-240300-
NORTHEAST WISCONSIN

CITY           SKY/WX    TMP DP  RH WIND       PRES   REMARKS
ANTIGO         CLOUDY    61  51  71 W6        29.76S
SHAWANO        MOCLDY    67  51  56 W7        29.73S
OCONTO         PTCLDY    67  50  55 W6        29.71R
STURGEON BAY     N/A     67  54  63 W10         N/A
GREEN BAY      PTCLDY    66  55  67 W8        29.73R
MANITOWOC      NOT AVBL
APPLETON       MOCLDY    64  52  63 W8        29.74R
CLINTONVILLE   MOCLDY    66  50  55 W7        29.74S
OSHKOSH        CLEAR     65  52  62 W6        29.75R
$$

WIZ032>034-041-042-053>061-240300-
SOUTHWEST WISCONSIN

CITY           SKY/WX    TMP DP  RH WIND       PRES   REMARKS
LA CROSSE      CLOUDY    70  57  63 NW7       29.83R
SPARTA         PTCLDY    66  54  64 W6        29.82S
VIROQUA        PTCLDY    64  55  71 W7        29.84R
BOSCOBEL       CLEAR     68  56  65 SW5       29.84R
PRAIRIE DU CHI CLEAR     68  54  60 W13       29.85R
PLATTEVILLE    CLEAR     66  56  71 W8        29.86R
$$

WIZ056-057-062-063-064-067-068-240300-
SOUTH CENTRAL WISCONSIN

CITY           SKY/WX    TMP DP  RH WIND       PRES   REMARKS
REEDSBURG      CLEAR     65  54  67 W6        29.80R
BARABOO/DELLS  CLEAR     64  53  68 W5        29.80S
LONE ROCK      NOT AVBL
MINERAL POINT  CLEAR     66  54  63 W6        29.84R
MADISON        PTCLDY    66  53  63 VRB5      29.80R
MIDDLETON      CLEAR     65  55  68 W9        29.82R
WATERTOWN      CLEAR     67  53  61 W8        29.78R
MONROE         CLEAR     64  52  63 W13       29.83R
JANESVILLE     PTCLDY    68  54  60 NW10      29.80R
$$

WIZ051-052-058>065-066-070>072-240300-
SOUTHEAST WISCONSIN

CITY           SKY/WX    TMP DP  RH WIND       PRES   REMARKS
MILWAUKEE      PTCLDY    72  52  49 NW13      29.75R
WAUKESHA       CLEAR     66  52  59 NW13G18   29.78R
MILWAUKEE/TIMM CLEAR     68  48  49 NW9G18    29.77R
RACINE         CLEAR     71  51  49 NW9       29.77R
KENOSHA        CLEAR     69  54  58 NW9       29.76R
FOND DU LAC    CLEAR     65  52  62 NW9       29.77R
SHEBOYGAN      PTCLDY    67  56  67 W7        29.74R
WEST BEND      CLEAR     66  50  55 W8        29.76R
JUNEAU         CLEAR     65  54  65 CALM      29.78R
$$

LSZ147-162-240300-
LAKE SUPERIOR

STATION/POSITION TIME  TEMP    WIND        PRES    WAVE
                       AIR SEA DIR/SP/G            HT/PER
                 (UTC) (F)     (DEG/KT/KT) (MB)    (FT/S)
W MID LAKE BUOY  0050   50 39  300/ 12/ 12 1006.2R   1/ 4
DEVILS ISLAND    0100   58     250/  9/ 10 1007.0R
SAXON HARBOR     0140   65      CALM  /  2 1007.1R
$$

LMZ867-665-643>646-240300-
LAKE MICHIGAN

STATION/POSITION TIME  TEMP    WIND        PRES    WAVE
                       AIR SEA DIR/SP/G            HT/PER
                 (UTC) (F)     (DEG/KT/KT) (MB)    (FT/S)
CHAMBERS ISLAND  0130   68     300/  5/  9 1005.1R
S GREEN BAY BUOY 0130   69     290/ 12/ 14 1005.6R
N MID LAKE BUOY  0050   61 58   20/  6/  8 1005.1R   1
NORTHPORT PIER   0140   67     290/  4/  8 1005.1R
KEWAUNEE LAKESHO 0130   69     290/  4/  8 1005.6R
SHEBOYGAN LAKESH 0100   71     300/ 12/ 14 1005.8R
PORT WASHINGTON  0130   71     300/  7/ 13 1007.8R
ATWATER BUOY     0009   70 60  300/ 14/ 16 1006.6R
MILWAUKEE LAKESH 0130   72     320/ 11/ 13   N/A
S MID LAKE BUOY  0050   68 63  290/  4/  6 1005.8R   0
KENOSHA   LAKESH 0100   74     310/ 14/ 19 1006.4
$$

TC  - TEMPERATURE IN CELSIUS
VSB - VISIBILITY IN STATUTE MILES
WCI - WIND CHILL INDEX
HX  - HEAT INDEX





USA.gov is the U.S. government's official web portal to all federal, state and local government web resources and services.